Location: Santa Cristina
(46.5667°N, 11.7167°E)
Time: 05:28:47
(UTC+00:00)

CZ-4B R/B - Pass Details

Date: 21 April 2021
Orbit: 702 x 803 km, 98.9° (Epoch: 15 May)

Event Time Altitude Azimuth Distance (km) Brightness Sun altitude
Rises 02:10:18 0° 16° (NNE) 3,103 7.7 -19.2°
Reaches altitude 10° 02:12:35 10° 19° (NNE) 2,183 6.8 -18.9°
Maximum altitude 02:17:20 68° 103° (ESE) 764 3.6 -18.3°
Enters shadow 02:20:27 22° 183° (S) 1,553 4.7 -17.9°
